Location: Madden
(51.3728°N, 114.3297°W)
Time: 05:58:26
(UTC+00:00)

PCSat - Pass Details

Date: 11 December 2023
Orbit: 784 x 791 km, 67.0° (Epoch: 02 March)

Event Time Altitude Azimuth Distance (km) Brightness Sun altitude
Exits shadow 11:06:53 15° 37° (NE) 2,047 12.1 -39.9°
Drops below altitude 10° 11:07:43 10° 37° (NE) 2,361 12.5 -39.8°
Sets 11:10:09 0° 38° (NE) 3,295 13.4 -39.4°
